Retour au catalogue

GLOBALSTAR M024

ActifCommunicationsMEO
NORAD 25883·PAYLOAD·🇺🇸 United States

Lancé Aug 17, 1999 depuis Cape Canaveral Space Force Station

Loading…

Prochains Passages (prochaines 24 heures)

TLE

FraisSource: Space-Track

Époque: Sep 14, 2026, 12:40 UTC

1 25883U 99043A   26257.52827067 -.00000139  00000-0 -26306-2 0  9994
2 25883  52.0005  75.4616 0002075 106.0296 286.3164 11.10170512165323

Suivez GLOBALSTAR M024 en temps réel avec AllMySat

Download on the App Store